Wind_Speed
11 20 35 37 38 37 39 42 42 44 42 39 39 38 39 38 42 46 46 44 42 39 38 37 34 34 34 34 32 30 29 28 28 28 18 14 17 16 13 13 12 14 13
19 14 25 21 31 44 46 43 46 43 48 44 40 33 35 33 38 42 47 45 43 42 40 39 36 36 35 32 33 34 30 27 34 18 17 3 5 13 17 18 15 12 12
14 19 20 27 26 34 41 44 46 50 48 39 32 28 30 27 31 37 42 45 42 39 39 38 38 38 36 36 37 35 36 29 37 33 9 3 4 9 12 21 21 20 18
17 17 19 26 27 26 30 35 40 38 38 36 35 36 37 26 27 32 32 39 39 38 37 36 37 37 35 36 37 35 37 32 31 32 12 5 15 3 3 17 20 20 22
18 21 19 23 31 35 23 27 28 30 31 39 37 35 32 33 29 35 37 39 39 37 37 36 35 38 37 35 36 36 34 33 32 25 14 11 9 10 5 3 9 18 21
15 16 26 31 31 39 33 17 25 28 31 35 37 42 36 30 29 30 32 32 38 36 35 34 32 34 34 32 33 33 32 29 30 30 22 17 7 7 5 3 5 12 19
14 16 18 18 32 28 30 36 9 21 28 34 36 38 34 35 33 34 32 33 34 36 37 35 29 30 30 28 29 28 26 25 26 23 19 18 18 8 9 8 7 5 7
6 8 11 17 23 29 29 24 29 24 22 26 24 26 23 28 26 29 30 32 36 36 37 34 30 29 28 27 26 24 20 16 17 17 15 14 11 8 11 9 16 3 2
7 5 3 5 13 23 24 28 27 31 16 15 25 27 31 28 30 35 35 34 33 34 37 35 30 27 25 25 26 21 17 13 13 15 14 11 10 6 6 9 21 14 4
8 7 5 8 7 2 11 22 29 29 19 23 4 8 21 29 28 27 30 32 32 32 34 35 32 29 27 27 24 21 15 12 13 16 13 8 7 10 10 13 17 13 9
8 7 7 12 17 14 6 2 6 20 30 16 10 11 18 19 25 29 31 30 32 33 33 36 36 34 33 31 26 22 26 26 20 16 15 12 14 12 16 14 16 15 11
10 9 8 10 14 12 14 18 15 14 1 13 18 17 19 19 19 22 25 26 30 31 32 34 37 37 35 32 30 34 29 27 24 22 17 19 19 17 16 16 16 14 12
9 9 7 8 9 13 16 16 20 19 12 16 16 20 22 18 21 24 26 27 29 32 33 36 38 39 38 37 37 35 33 34 33 27 25 26 21 21 19 18 17 14 11
10 5 6 7 10 17 19 21 23 23 25 24 22 23 21 23 25 24 28 31 32 34 36 37 38 37 37 36 35 32 31 30 28 29 28 21 24 23 19 15 13 14 12
5 3 2 4 6 9 18 21 23 22 22 15 16 19 17 20 24 25 26 27 32 35 35 35 32 32 35 35 35 35 34 32 27 25 24 24 21 19 16 14 14 14 14
6 6 5 5 5 6 14 16 17 25 25 19 21 23 19 19 23 25 26 28 30 29 32 33 35 34 29 32 36 35 32 29 28 28 27 23 21 18 15 13 12 11 11
5 6 6 5 9 13 13 15 12 13 23 20 19 19 18 20 23 25 27 29 31 33 33 32 33 30 27 34 34 32 32 28 34 32 28 23 18 15 15 12 9 8 5
6 7 6 10 18 17 17 16 15 17 12 13 14 12 12 20 25 27 28 28 30 30 31 32 32 31 32 34 32 30 30 34 31 28 24 17 16 14 13 10 8 5 4
7 8 16 19 21 19 17 13 14 12 12 9 11 13 14 16 24 28 30 28 27 28 30 32 35 35 32 35 35 32 32 30 27 20 17 18 16 15 13 12 10 8 7
13 16 24 25 23 24 26 18 6 5 5 7 12 14 16 12 22 32 34 34 33 33 32 31 31 32 34 35 34 33 29 25 23 21 19 16 16 15 11 11 11 11 11
15 22 24 21 26 26 22 12 11 9 6 8 11 11 12 11 19 27 30 32 31 29 29 29 31 33 35 35 33 31 30 28 26 24 22 20 16 14 11 10 8 7 8
13 20 19 19 27 21 14 13 10 7 6 5 7 8 9 10 15 20 21 25 27 26 24 25 26 30 35 34 30 28 27 28 27 24 22 19 17 14 13 9 6 6 6
14 18 19 19 13 12 14 14 10 7 5 5 4 4 5 7 13 21 22 20 22 22 24 26 25 26 28 31 28 24 23 22 22 22 20 18 17 16 13 9 6 7 7
9 18 14 8 14 13 12 10 8 6 5 3 4 3 4 8 13 17 21 21 21 22 24 24 23 26 26 28 28 25 23 21 19 17 16 18 20 17 13 9 8 9 9
15 11 10 8 16 19 14 10 9 5 7 7 6 8 11 14 16 16 17 20 22 31 28 25 30 29 24 26 30 28 26 22 21 21 22 23 22 18 15 11 11 11 12
17 14 15 13 12 15 13 11 8 11 10 11 11 13 15 17 18 21 19 17 22 22 23 30 31 23 26 30 29 26 22 19 21 24 26 25 21 17 14 13 13 14 13
Wind_Direction
328 245 215 200 194 192 193 195 194 197 189 190 190 194 199 201 207 211 212 209 206 207 205 203 199 198 196 192 188 181 176 174 170 154 148 158 174 177 179 171 167 164 164
2 11 8 252 197 192 197 197 197 194 196 197 199 195 194 198 203 204 206 209 209 208 205 207 205 204 203 202 195 187 179 179 174 159 132 141 182 192 186 181 180 173 172
11 1 10 354 236 207 199 197 201 198 196 194 188 191 187 192 194 202 204 206 206 205 206 207 208 206 208 203 198 196 186 172 177 173 148 142 189 143 190 188 185 181 182
15 15 9 12 351 243 220 214 200 201 197 186 183 182 182 184 198 195 197 203 203 204 209 209 207 210 208 209 204 200 196 183 186 186 195 161 139 159 136 195 190 186 182
16 9 3 10 17 7 218 217 212 205 193 184 184 187 193 193 190 195 200 203 200 208 211 213 209 211 210 212 211 206 204 202 191 187 184 165 162 149 139 158 180 189 189
12 13 13 5 9 17 8 217 204 198 192 187 186 187 190 188 179 184 187 187 198 206 211 216 212 213 213 213 214 212 212 210 207 197 203 191 168 179 147 119 154 174 189
8 8 7 9 9 356 16 10 255 200 194 192 191 190 190 186 185 184 181 179 190 200 207 212 208 211 216 214 213 209 208 212 216 215 213 208 208 195 177 133 143 151 164
8 20 2 358 360 355 359 3 14 329 210 198 194 186 189 190 182 186 183 185 191 198 205 208 209 207 207 205 204 201 197 197 204 212 203 182 172 183 177 150 144 83 118
316 286 294 58 2 342 352 5 0 16 12 213 186 188 192 200 190 190 197 193 195 198 205 207 202 196 193 188 186 184 177 168 158 163 164 166 144 157 163 167 185 158 160
297 307 302 318 314 53 19 6 3 354 16 10 317 223 198 197 196 189 190 189 193 198 204 202 198 189 183 180 180 174 181 187 174 160 165 183 196 217 226 191 193 194 150
277 277 282 262 271 282 252 325 13 2 348 323 278 258 229 200 190 188 196 202 202 203 204 200 194 192 187 189 193 201 178 178 188 199 202 206 214 206 199 186 200 199 177
255 266 264 256 247 265 266 260 223 243 178 350 320 285 241 219 206 202 204 199 202 202 201 193 190 190 191 194 194 185 191 198 198 198 204 214 203 201 194 188 190 184 176
264 262 268 280 283 279 266 253 221 221 208 212 227 249 241 245 229 218 210 210 206 202 197 196 196 196 198 196 197 199 200 204 206 205 197 199 202 206 193 188 187 171 172
259 276 321 307 302 306 302 285 273 265 249 233 231 229 230 236 241 231 221 212 208 202 196 199 203 200 193 192 195 197 196 196 193 193 194 203 200 198 192 189 185 171 165
7 282 257 285 326 326 23 18 7 326 284 261 239 241 239 236 233 233 220 213 206 202 198 193 191 190 190 195 196 193 191 184 185 192 197 195 199 193 194 190 177 172 160
10 1 335 305 284 349 4 352 2 3 346 306 257 249 247 236 228 229 218 212 206 195 188 186 190 189 184 191 196 193 188 190 189 186 180 173 178 171 168 177 184 201 191
322 327 323 321 326 333 338 336 326 339 357 321 309 290 270 243 226 223 215 208 199 191 183 185 189 182 186 188 196 194 190 185 179 175 171 167 171 194 193 185 189 200 214
305 308 303 309 320 320 311 317 308 289 286 327 302 307 296 252 229 212 207 198 193 188 182 181 182 183 189 187 187 185 181 180 181 177 172 182 184 188 189 187 179 170 174
284 272 303 312 318 310 303 294 288 277 247 257 281 311 327 248 222 203 195 194 189 185 184 184 184 182 179 179 179 177 179 175 173 179 192 192 187 177 183 194 181 177 182
275 286 296 303 297 303 307 280 228 235 259 289 305 315 309 255 221 209 201 199 193 186 183 177 181 180 167 180 180 180 174 164 172 182 180 187 184 177 178 180 189 185 193
262 284 289 280 283 293 290 223 207 215 254 299 296 298 311 277 234 210 198 190 180 177 170 166 170 169 173 177 184 181 172 172 163 165 173 180 181 183 182 194 206 206 206
268 274 277 274 287 279 253 206 215 237 265 291 303 319 311 281 231 205 188 177 167 158 152 151 148 157 167 173 174 177 185 175 168 169 178 177 181 185 183 191 194 202 210
262 272 259 273 272 249 213 199 214 212 237 214 224 223 223 225 217 197 176 160 158 151 148 148 141 143 152 161 172 176 177 178 177 184 191 185 180 178 186 191 209 192 202
265 278 264 273 243 227 218 219 195 199 211 238 219 190 181 166 177 168 159 151 147 145 142 137 141 145 147 152 163 167 171 173 175 179 181 179 181 191 192 203 205 207 212
288 260 242 259 263 215 203 192 204 189 199 197 166 147 140 136 128 131 143 148 152 157 153 154 151 149 155 162 171 173 171 171 176 179 179 178 187 193 203 216 211 220 232
276 246 246 255 227 204 202 196 200 192 186 152 148 143 133 125 122 117 111 146 158 156 156 161 160 156 161 168 175 174 174 172 178 171 172 179 189 201 219 224 231 239 243
Height
694 687 678 683 689 696 701 704 710 714 721 724 728 733 737 744 749 754 761 766 771 775 779 784 790 793 796 798 803 806 808 814 818 822 828 833 835 836 837 839 842 844 846
704 704 698 696 687 682 688 694 697 704 709 713 718 726 731 736 743 748 753 760 764 768 773 778 784 789 793 797 800 802 804 810 813 817 824 834 838 837 838 839 841 842 844
712 702 699 697 692 687 683 687 694 691 695 706 717 723 729 734 738 742 748 752 758 765 769 773 778 783 788 791 794 798 799 802 809 811 812 827 828 831 836 838 839 840 843
715 710 703 700 695 689 690 692 685 695 698 701 707 713 715 724 729 735 742 747 754 761 766 769 773 779 784 788 792 796 798 799 803 808 808 810 810 824 835 837 838 839 841
723 719 712 704 700 692 689 692 695 697 698 695 700 708 715 718 724 730 736 743 749 755 761 765 769 773 778 783 789 792 797 797 799 803 805 810 812 813 818 830 834 838 839
727 722 716 711 703 699 696 688 690 690 692 693 694 696 703 712 716 723 731 737 744 750 757 762 765 770 774 779 784 789 793 797 799 800 802 805 809 811 813 821 829 833 837
731 724 719 713 714 710 703 699 694 689 688 688 689 691 697 702 708 714 722 728 736 742 748 755 760 765 770 776 781 787 788 794 797 800 801 803 806 808 810 813 823 828 834
726 723 725 720 719 720 710 708 702 696 690 692 693 693 701 695 703 712 716 723 728 734 741 750 756 761 765 771 777 781 786 791 793 797 801 802 804 808 809 810 817 829 830
725 722 723 709 716 720 713 711 709 705 693 686 683 687 691 704 703 706 713 718 724 731 737 744 751 757 763 768 774 779 783 790 792 797 801 803 803 808 809 810 815 818 829
721 716 717 713 713 711 708 704 706 711 706 705 697 698 699 700 701 708 711 714 720 728 734 741 747 753 760 766 771 775 779 783 792 797 801 804 804 809 810 812 815 817 817
723 717 717 714 711 710 704 699 702 708 708 708 701 704 706 702 701 704 709 712 718 724 731 736 742 749 755 762 766 773 779 785 792 793 798 802 806 805 811 808 815 817 817
719 714 712 711 709 706 701 697 699 704 697 701 709 709 712 705 704 706 707 712 716 721 727 733 739 745 750 754 760 766 774 782 787 790 794 798 802 805 808 809 813 814 814
715 711 709 707 704 703 699 697 699 701 695 697 701 711 707 700 702 702 704 710 716 719 724 729 734 739 744 749 755 761 768 775 779 785 790 796 799 804 806 808 813 811 815
710 710 712 709 707 704 699 697 696 695 694 696 700 704 697 697 698 699 705 707 709 716 720 724 729 735 740 746 751 757 765 772 778 784 789 793 798 802 805 809 810 810 814
709 709 708 707 705 705 699 696 695 693 692 692 695 698 693 690 695 698 705 707 708 710 715 721 728 734 737 742 748 753 760 767 773 780 785 791 796 800 804 807 810 812 813
716 713 710 709 707 702 698 697 698 696 693 691 689 689 689 689 693 697 698 702 706 709 712 719 724 729 735 741 747 752 758 764 771 777 783 788 792 796 801 805 808 812 812
713 712 709 707 704 700 698 696 696 695 695 691 691 690 688 690 690 691 695 698 703 705 707 716 721 727 735 739 744 750 756 763 769 774 779 785 790 795 800 803 806 808 808
713 710 707 703 700 697 695 693 692 690 691 694 697 691 685 684 685 685 691 696 699 703 705 711 718 724 731 738 742 750 756 762 768 773 779 785 789 794 798 802 804 804 806
709 706 703 700 697 695 693 690 688 687 686 688 688 684 681 682 680 681 684 692 698 700 703 708 714 721 731 737 741 748 756 760 767 775 779 783 788 791 794 799 803 804 805
704 701 697 695 693 690 688 686 684 685 684 683 683 680 680 676 676 678 680 683 688 693 699 706 715 722 729 736 741 748 754 760 766 771 777 782 786 790 792 799 802 801 803
698 696 693 690 687 685 682 681 681 680 680 680 681 679 674 672 675 676 677 680 686 692 698 707 713 720 726 736 742 747 751 758 763 770 776 780 784 789 791 798 800 800 804
691 690 688 684 681 678 675 675 676 676 677 676 676 672 671 674 673 675 679 681 685 693 700 707 713 720 728 736 743 748 752 757 761 769 774 778 783 787 790 795 798 799 800
684 681 680 677 676 674 672 670 670 672 674 676 676 674 675 674 674 675 679 684 688 692 698 705 712 719 729 736 743 749 753 758 763 766 772 778 783 786 791 793 796 796 800
677 676 675 673 673 671 670 670 670 670 672 672 673 673 673 674 675 676 679 683 688 692 697 705 711 721 729 736 742 749 752 759 763 768 773 779 783 787 790 791 792 794 797
671 670 669 668 669 667 667 665 668 665 670 671 671 672 673 675 676 677 681 684 688 690 696 703 709 716 727 735 738 745 751 757 762 766 771 776 782 786 787 787 790 793 795
664 662 660 659 662 666 664 663 665 667 668 669 672 673 675 676 678 680 685 688 691 696 701 704 709 719 727 733 740 747 753 756 763 766 771 775 779 781 783 785 789 791 792